Weather at Ste-Lucie-De-Beauregard Airport

Public forecast

Using degrees Celsius for public forecast. Weather courtesy of forecast.io.

Closest aviation weather report (METAR) to Ste-Lucie-De-Beauregard Airport

Closest report is Quebec Jean Lesage International Airport, 56.0 nm (103.8 km) W. Retrieved 2020/11/24 05:00 UTC (48 minutes ago):

CYQB 240500Z 24007KT 210V320 15SM OVC036 M01/M07 A2992 RMK SC8 SLP136

Closest aviation forecast (TAF) to Ste-Lucie-De-Beauregard Airport

Forecast is more than 12 hours old.

Closest forecast is Charlevoix Airport, 52.0 nm (96.4 km) N. Retrieved 2018/06/10 18:00 UTC (2 years ago):

TAF CYML 101730Z 1018/1106 12005KT P6SM FEW060 FM102100 14006KT P6SM SCT080 BECMG 1021/1023 VRB03KT RMK NXT FCST BY 110000Z